Wetbulb
57.50 57.29 57.22 57.36 57.43 57.42 57.42 57.31 57.07 56.96 57.02 57.09 57.28 57.03 56.58 56.49 56.28 56.27 56.33 56.18 56.42 56.95 56.80 56.64 57.51 57.66 45.48 40.41 38.18 42.62 51.07 46.06 41.56 41.65 38.86 39.44 37.97 37.36 35.01 34.01 34.70 33.54 33.14 33.57 33.62 33.31 33.02
57.21 57.29 57.25 57.31 57.33 57.46 57.47 57.42 57.17 56.96 56.91 56.93 57.12 56.55 56.19 55.94 55.60 55.77 56.05 55.93 56.36 56.49 56.32 56.54 58.12 55.19 42.68 37.76 40.72 40.44 40.28 40.38 39.91 40.05 38.06 38.34 36.61 36.61 34.34 33.01 33.36 33.36 33.12 32.85 33.54 33.39 33.61
56.83 57.06 57.13 57.40 57.44 57.39 57.23 57.09 57.06 57.01 57.00 56.72 56.74 56.26 55.80 55.49 55.52 55.72 55.67 55.86 56.23 56.36 56.24 56.27 57.53 44.05 41.57 39.06 39.18 41.07 40.28 38.58 39.32 39.15 39.23 38.23 38.68 37.59 35.70 33.46 34.04 33.59 33.43 32.49 32.28 32.64 32.96
56.57 56.90 57.24 57.28 57.07 57.04 57.56 57.85 57.84 57.72 57.40 56.81 56.35 55.88 55.62 55.29 55.42 55.41 55.24 55.22 55.92 56.85 56.28 56.04 56.34 42.32 37.49 40.93 39.35 40.60 40.47 40.00 40.86 41.09 39.57 39.38 39.36 36.34 35.22 34.41 34.68 33.40 33.48 32.01 32.16 31.96 33.22
56.65 56.88 56.95 57.14 57.55 57.90 58.23 57.73 57.45 57.94 57.30 56.50 56.09 55.54 55.31 55.25 55.27 55.50 55.48 55.10 56.16 55.06 54.59 53.12 43.20 40.70 37.31 46.77 40.84 39.69 39.79 38.93 38.98 40.42 41.11 41.43 38.13 34.26 34.09 33.86 32.52 31.12 29.99 30.82 32.43 30.68 30.69
56.66 56.73 57.03 57.40 57.80 58.35 58.52 57.82 57.52 57.34 57.25 56.33 55.68 55.05 54.76 54.87 55.36 55.39 53.53 54.72 54.24 50.78 45.73 44.94 42.97 39.87 40.93 39.13 39.57 40.18 39.85 39.69 38.90 39.08 40.36 38.38 34.68 31.71 28.56 30.73 27.88 29.12 28.61 28.71 28.62 29.92 28.96
56.48 56.84 57.07 57.45 58.05 58.46 58.30 58.03 57.70 57.44 56.68 56.11 55.46 54.82 54.35 54.92 55.41 53.00 47.56 43.00 42.68 42.02 38.83 35.92 34.74 35.92 38.03 39.69 39.43 41.61 39.17 38.93 39.88 37.10 33.20 33.79 30.35 26.61 26.12 26.66 27.27 26.84 26.09 26.24 28.07 27.90 28.54
56.41 56.85 57.22 57.63 58.00 58.55 58.35 57.82 57.64 57.31 56.49 55.90 55.42 54.63 54.30 54.32 54.50 49.50 41.83 39.12 35.32 38.17 36.94 36.61 36.37 37.46 37.36 37.21 39.00 41.21 40.61 38.61 36.96 32.55 32.33 33.60 27.90 27.27 28.36 28.33 28.15 27.70 26.32 26.05 28.74 28.62 26.73
56.42 56.92 57.27 57.58 58.02 58.42 58.42 57.68 57.48 57.15 55.90 55.70 55.22 54.54 54.35 52.89 51.56 42.00 38.23 36.71 38.99 38.64 38.65 37.22 36.96 36.92 37.17 39.17 34.99 37.22 37.69 35.01 33.71 31.24 29.44 30.88 28.29 28.91 28.29 27.77 27.82 28.25 25.62 24.19 24.61 25.98 25.71
56.38 56.70 57.18 57.64 58.05 58.12 58.23 57.40 57.12 57.06 55.87 55.03 54.49 53.99 53.56 51.78 46.12 37.11 35.72 37.93 38.90 38.75 34.38 35.75 37.54 38.47 39.19 37.45 35.37 37.79 37.00 35.20 33.61 30.57 28.43 28.79 28.99 28.53 28.44 27.73 26.93 26.33 26.41 25.43 24.08 23.03 23.94
56.13 56.67 57.22 57.61 57.86 57.80 57.96 57.30 56.95 56.63 55.67 54.62 53.22 53.31 51.37 49.01 39.59 35.98 36.34 38.91 39.09 42.14 24.70 36.06 37.19 40.92 38.96 37.21 35.28 38.26 36.51 37.00 31.89 30.79 31.21 28.70 27.56 28.02 29.41 27.96 27.05 28.51 26.31 24.59 23.55 18.02 18.47
56.03 56.74 57.21 57.49 57.65 57.62 57.60 56.88 56.43 56.14 55.33 54.60 52.88 52.26 49.60 43.09 39.13 37.36 38.82 39.81 42.03 33.26 22.56 33.27 35.30 34.53 35.01 35.22 35.78 36.25 35.73 36.20 33.74 32.37 29.96 26.57 27.05 26.87 26.85 27.64 27.16 27.44 25.66 23.68 21.87 20.24 18.98
56.02 56.72 57.21 57.11 57.46 57.32 57.45 56.19 55.99 55.91 55.53 54.73 51.52 50.71 44.79 41.11 38.99 38.88 40.85 42.24 33.33 25.63 32.93 31.78 31.01 32.85 30.99 31.20 33.33 32.08 30.05 25.11 27.31 28.31 28.09 29.68 27.20 26.29 27.00 26.93 27.20 26.13 25.13 22.65 23.01 20.94 22.79
56.11 56.80 56.83 56.89 57.10 57.21 56.76 55.41 55.48 55.75 55.80 54.72 51.48 47.59 44.91 41.16 38.72 41.02 41.23 36.87 27.56 29.50 30.47 30.38 30.31 30.92 30.33 30.20 29.94 31.20 29.24 26.47 24.24 26.02 23.44 24.40 26.59 27.04 25.88 24.31 22.57 23.12 21.23 21.05 16.93 19.57 19.44
56.28 56.91 55.64 55.58 56.85 56.87 55.30 55.40 55.45 55.73 55.50 54.09 49.51 42.21 43.42 43.82 40.61 41.43 38.59 26.93 26.71 29.43 29.40 29.74 30.00 28.04 27.43 30.49 27.84 29.34 23.94 21.88 22.43 21.57 27.11 22.83 27.92 24.08 24.77 24.28 25.10 24.50 21.28 22.49 14.11 8.86 14.62
56.45 55.92 55.32 55.49 56.44 55.74 55.46 55.59 55.77 55.85 55.31 51.73 42.69 41.22 43.36 43.53 40.63 38.70 33.66 31.09 30.03 28.98 29.20 28.95 27.75 27.72 24.94 27.24 27.99 27.78 25.32 24.54 23.87 22.35 22.29 25.14 23.31 26.23 23.19 24.57 23.82 22.80 23.51 20.87 16.60 14.27 15.60
56.50 55.28 55.31 55.28 55.20 54.83 54.79 55.04 55.59 55.77 54.77 50.62 40.98 38.48 41.97 41.63 37.97 35.07 27.36 25.94 29.54 28.58 29.10 28.85 28.17 26.46 24.91 25.11 24.74 23.92 25.14 27.78 26.21 23.68 23.25 19.22 22.62 25.89 24.05 22.94 20.89 19.75 15.71 16.84 17.78 17.37 16.21
56.28 55.38 55.07 55.07 54.44 54.07 53.94 54.32 54.96 55.35 53.31 44.82 36.36 33.83 41.23 38.31 33.54 24.16 26.26 29.02 34.18 28.61 28.09 28.33 28.45 26.02 26.38 27.20 25.68 26.13 28.07 29.25 26.31 25.96 22.22 21.47 19.46 18.33 27.24 14.39 12.84 16.89 19.94 18.83 22.39 23.15 20.40
56.06 56.41 55.59 55.10 53.89 53.47 53.22 53.38 53.78 54.77 51.14 41.05 35.45 34.36 41.94 38.18 26.10 25.38 27.01 28.97 29.41 28.61 28.92 28.50 28.16 28.58 26.86 27.12 26.12 27.65 28.96 27.59 26.78 26.86 22.38 25.52 26.47 25.82 24.93 19.85 17.71 16.41 18.54 19.80 22.84 26.79 23.96
56.42 55.53 54.90 54.18 53.35 52.80 52.35 52.40 52.54 53.71 53.07 40.99 37.30 32.73 38.04 33.53 28.91 27.33 28.07 29.94 30.02 29.26 28.98 28.95 28.18 27.51 25.61 25.62 26.74 25.47 27.43 27.45 26.58 27.57 33.49 32.41 27.81 31.27 28.56 31.34 29.73 25.57 22.95 21.02 25.88 24.12 27.59
55.14 54.68 53.93 52.94 52.03 51.30 51.13 51.29 51.64 52.66 52.48 43.79 35.61 30.26 31.64 28.44 32.16 29.69 29.41 29.09 30.62 30.67 27.60 27.57 27.11 28.15 25.75 24.47 26.55 26.03 26.61 25.93 27.44 30.67 30.28 29.31 24.04 24.11 29.12 30.85 30.40 30.20 30.48 29.31 22.71 26.97 26.55
54.36 53.50 52.26 51.43 50.60 50.25 49.94 50.36 50.55 51.60 51.83 39.94 37.43 34.39 35.15 35.77 30.98 29.18 31.36 29.80 30.72 31.58 29.38 28.46 27.20 30.52 27.38 26.03 33.15 31.28 32.07 31.29 32.93 26.53 26.95 26.09 24.60 25.96 22.26 25.97 25.64 25.34 28.42 28.50 27.98 27.39 26.84
52.18 51.16 50.60 50.19 49.68 49.50 49.29 49.69 49.77 50.33 49.82 41.28 36.40 37.74 37.31 34.73 29.55 27.41 30.48 31.62 32.19 31.53 34.31 33.23 31.13 30.28 28.36 30.65 33.36 34.51 35.23 36.34 36.31 28.27 25.86 24.59 24.11 22.40 26.09 24.46 24.66 22.87 21.48 23.91 12.24 7.25 19.67
50.33 49.83 49.38 48.93 48.51 48.13 47.85 48.18 48.54 48.78 48.83 42.23 39.51 40.11 34.50 30.66 29.29 32.78 34.58 35.32 35.59 35.14 33.55 36.17 33.59 33.91 32.56 32.07 33.42 31.96 29.67 28.34 29.96 31.20 30.86 24.50 23.38 24.63 22.23 24.38 17.33 23.06 14.90 17.14 21.00 17.43 17.01
48.97 48.35 47.94 47.68 47.56 47.39 47.42 47.87 47.92 47.93 48.48 43.03 40.77 40.38 37.28 33.70 33.40 33.76 35.01 34.43 34.74 36.14 36.77 37.64 37.42 30.96 32.16 34.08 32.25 31.90 32.17 29.80 21.61 21.00 27.42 29.38 26.79 24.35 22.57 20.91 22.50 25.19 19.62 17.10 17.47 19.86 18.06
47.49 47.38 47.31 47.25 47.18 47.10 47.19 47.40 47.56 47.74 47.45 42.92 39.01 40.79 41.13 35.12 35.61 38.28 34.49 37.17 37.39 37.41 31.19 32.73 28.99 29.72 30.24 31.56 31.70 28.00 26.94 29.10 23.67 17.77 19.13 25.03 26.44 25.03 19.45 17.68 15.23 21.21 22.95 22.15 18.29 16.62 23.16
47.24 47.12 47.02 46.99 46.94 46.75 46.88 46.94 46.77 46.65 46.65 42.07 38.84 38.17 39.04 33.46 35.40 38.79 36.08 36.10 35.90 28.55 29.54 25.73 25.39 27.39 27.27 27.08 29.32 27.03 24.99 27.50 24.16 22.18 9.19 14.00 19.37 19.88 20.84 20.66 20.32 25.31 23.32 22.36 17.02 20.86 22.55
46.91 46.82 46.64 46.53 46.45 46.39 46.23 46.13 46.03 45.89 45.69 39.78 36.05 37.54 36.06 33.26 33.08 33.84 35.72 32.35 31.31 28.51 25.39 26.00 26.37 24.74 27.83 28.82 27.59 23.83 23.60 19.79 22.32 18.50 13.07 15.32 14.19 11.84 16.40 15.73 12.43 22.96 22.16 21.33 25.68 29.99 28.89
46.15 46.04 46.10 46.19 46.13 46.26 46.04 45.82 45.53 45.50 45.43 41.66 33.20 37.07 39.33 36.62 30.27 31.61 33.15 35.00 34.36 33.99 32.46 25.90 25.16 21.24 26.28 23.14 25.95 26.42 27.50 23.89 24.69 21.34 17.21 18.56 23.32 20.46 20.67 20.22 25.96 24.46 26.14 29.50 31.89 30.26 32.59
MSLP
1022.17 1021.97 1021.88 1021.78 1021.65 1021.46 1021.02 1020.54 1020.24 1020.08 1019.80 1019.48 1019.15 1018.83 1018.62 1018.50 1018.32 1018.16 1017.96 1017.76 1017.52 1017.20 1016.89 1016.59 1016.25 1015.95 1016.00 1016.53 1017.53 1016.96 1016.70 1016.28 1015.80 1015.59 1016.12 1016.03 1016.22 1016.85 1018.03 1018.79 1019.25 1019.81 1020.51 1020.73 1020.95 1021.05 1021.07
1022.38 1022.23 1022.05 1021.82 1021.61 1021.29 1020.88 1020.54 1020.29 1020.00 1019.70 1019.32 1019.06 1018.80 1018.63 1018.47 1018.25 1018.07 1017.84 1017.56 1017.29 1017.04 1016.78 1016.50 1016.10 1015.83 1015.97 1017.21 1017.37 1017.33 1017.08 1016.44 1016.46 1016.24 1016.61 1016.55 1017.03 1017.23 1018.37 1019.34 1019.70 1020.46 1020.70 1021.00 1021.15 1021.32 1021.26
1022.64 1022.50 1022.06 1021.78 1021.58 1021.33 1020.98 1020.57 1020.21 1020.01 1019.72 1019.46 1019.16 1018.90 1018.70 1018.44 1018.18 1017.94 1017.61 1017.29 1017.07 1016.87 1016.65 1016.38 1016.00 1015.80 1016.63 1017.71 1017.41 1017.41 1017.23 1017.06 1017.01 1016.81 1016.95 1017.19 1017.15 1017.38 1018.64 1019.75 1020.28 1020.41 1020.75 1020.97 1021.17 1021.37 1021.36
1022.75 1022.56 1022.23 1021.96 1021.76 1021.41 1020.94 1020.63 1020.35 1020.04 1019.76 1019.50 1019.18 1018.91 1018.63 1018.32 1017.98 1017.69 1017.37 1017.05 1016.82 1016.60 1016.37 1016.22 1015.98 1015.96 1017.04 1017.25 1017.36 1017.42 1017.35 1017.08 1017.07 1016.93 1017.08 1017.33 1017.39 1018.14 1019.39 1020.29 1020.43 1020.65 1020.77 1021.22 1021.28 1021.37 1021.34
1022.85 1022.67 1022.43 1022.15 1021.81 1021.38 1021.04 1020.79 1020.46 1020.07 1019.72 1019.45 1019.14 1018.81 1018.54 1018.15 1017.72 1017.37 1017.05 1016.73 1016.53 1016.33 1016.19 1016.07 1016.12 1016.16 1017.36 1017.23 1017.50 1017.91 1017.90 1017.83 1017.53 1017.26 1017.38 1017.43 1017.90 1019.75 1020.45 1020.82 1021.18 1021.45 1021.57 1021.76 1021.62 1022.02 1022.00
1023.07 1022.85 1022.59 1022.27 1021.90 1021.59 1021.26 1020.93 1020.53 1020.06 1019.63 1019.30 1019.04 1018.69 1018.37 1017.92 1017.42 1017.02 1016.73 1016.52 1016.45 1016.27 1016.33 1016.24 1016.61 1017.15 1017.59 1018.44 1018.42 1018.23 1018.09 1017.99 1017.81 1017.57 1017.71 1018.23 1019.36 1020.77 1022.12 1022.03 1022.83 1022.80 1022.64 1022.43 1022.72 1022.70 1022.46
1023.36 1023.10 1022.77 1022.45 1022.11 1021.81 1021.43 1021.05 1020.50 1020.03 1019.62 1019.31 1019.01 1018.65 1018.21 1017.70 1017.26 1016.89 1016.59 1016.70 1017.46 1017.64 1018.08 1018.87 1019.03 1019.02 1019.03 1018.93 1018.73 1018.50 1018.56 1018.32 1018.12 1018.53 1019.75 1020.16 1021.33 1023.07 1023.89 1023.87 1023.64 1023.59 1023.59 1023.66 1023.12 1023.42 1023.09
1023.57 1023.26 1022.95 1022.66 1022.36 1021.98 1021.55 1021.09 1020.54 1020.06 1019.69 1019.31 1018.95 1018.48 1017.93 1017.52 1017.11 1016.89 1017.10 1018.53 1019.81 1019.87 1019.93 1019.65 1019.43 1019.40 1019.46 1019.67 1019.22 1018.98 1018.73 1019.01 1019.23 1020.43 1020.77 1021.23 1022.91 1023.87 1024.06 1024.05 1024.01 1023.98 1024.12 1024.08 1023.49 1023.67 1023.91
1023.73 1023.49 1023.20 1022.86 1022.50 1022.13 1021.64 1021.12 1020.61 1020.13 1019.76 1019.28 1018.85 1018.30 1017.82 1017.40 1017.08 1017.33 1018.79 1019.95 1020.13 1019.95 1019.76 1019.88 1019.59 1019.54 1019.81 1019.82 1020.51 1020.40 1020.07 1020.36 1020.90 1021.48 1022.20 1022.52 1023.89 1024.06 1024.24 1024.34 1024.38 1024.27 1024.63 1024.89 1025.23 1024.46 1024.11
1023.89 1023.70 1023.49 1023.12 1022.68 1022.29 1021.76 1021.26 1020.72 1020.21 1019.76 1019.24 1018.75 1018.28 1017.84 1017.21 1017.62 1018.81 1019.72 1020.15 1020.10 1020.00 1020.17 1020.23 1019.75 1019.76 1019.88 1019.98 1020.84 1020.99 1021.01 1021.13 1021.62 1022.40 1023.03 1023.72 1024.09 1024.30 1024.43 1024.71 1025.01 1024.93 1025.08 1025.51 1025.77 1025.87 1025.49
1024.02 1023.86 1023.67 1023.41 1022.88 1022.41 1021.90 1021.52 1020.85 1020.29 1019.82 1019.29 1018.81 1018.40 1018.07 1017.16 1018.43 1019.41 1020.33 1020.17 1020.01 1019.85 1020.97 1020.58 1020.01 1019.72 1020.00 1020.65 1021.61 1021.22 1021.50 1021.02 1022.28 1023.09 1023.55 1024.46 1024.66 1024.75 1024.97 1025.38 1025.55 1025.47 1025.56 1025.86 1026.09 1026.45 1026.48
1024.19 1024.05 1023.85 1023.59 1023.02 1022.56 1022.13 1021.70 1021.06 1020.45 1019.97 1019.52 1019.05 1018.62 1018.26 1018.51 1019.19 1020.27 1020.20 1020.01 1019.89 1020.45 1020.63 1020.46 1020.42 1020.62 1020.67 1021.26 1021.87 1021.92 1021.82 1021.93 1022.88 1023.36 1023.97 1024.93 1025.35 1025.57 1025.73 1025.75 1025.90 1025.97 1026.01 1026.19 1026.49 1026.45 1026.26
1024.40 1024.21 1024.05 1023.78 1023.26 1022.79 1022.35 1021.89 1021.28 1020.60 1020.07 1019.71 1019.40 1019.10 1018.62 1019.44 1020.31 1020.24 1020.21 1020.11 1020.67 1021.26 1020.99 1021.49 1021.44 1021.56 1021.97 1022.48 1022.59 1023.12 1023.44 1024.08 1024.91 1024.93 1025.50 1025.44 1025.78 1026.14 1026.46 1026.54 1026.44 1026.54 1026.75 1026.95 1026.84 1026.45 1025.76
1024.57 1024.37 1024.19 1023.98 1023.47 1023.00 1022.59 1022.12 1021.49 1020.72 1020.07 1019.68 1019.58 1019.43 1019.89 1020.14 1020.28 1020.20 1020.20 1020.42 1021.18 1021.46 1021.63 1021.94 1021.98 1021.95 1022.41 1023.02 1023.44 1023.85 1024.52 1025.69 1026.12 1026.45 1027.11 1027.16 1026.35 1026.71 1027.20 1027.69 1027.92 1027.92 1028.00 1028.29 1028.41 1028.09 1026.46
1024.78 1024.56 1024.41 1024.17 1023.65 1023.25 1022.89 1022.22 1021.49 1020.67 1020.01 1019.60 1019.53 1019.97 1020.19 1020.31 1020.22 1020.25 1020.43 1021.66 1022.03 1022.35 1022.48 1022.40 1022.22 1022.39 1022.81 1023.19 1023.74 1024.16 1025.12 1026.31 1026.87 1027.27 1027.69 1027.78 1027.22 1027.27 1027.70 1028.30 1028.96 1028.94 1028.81 1028.68 1028.79 1029.44 1027.90
1025.01 1024.76 1024.57 1024.27 1023.86 1023.43 1022.95 1022.28 1021.48 1020.64 1020.00 1019.58 1019.96 1020.30 1020.62 1020.32 1020.21 1020.41 1021.37 1022.67 1023.11 1023.18 1023.11 1023.08 1022.94 1023.19 1023.49 1023.69 1024.08 1024.61 1025.32 1026.32 1027.27 1027.81 1028.03 1028.27 1028.07 1027.56 1028.36 1028.86 1029.44 1029.56 1029.79 1029.49 1029.31 1028.89 1027.22
1025.14 1024.97 1024.70 1024.42 1024.10 1023.64 1023.13 1022.47 1021.68 1020.77 1020.02 1019.65 1020.18 1020.68 1020.48 1020.39 1020.41 1020.99 1023.22 1023.84 1023.77 1023.76 1023.70 1023.66 1023.53 1023.78 1024.10 1024.33 1024.57 1025.03 1025.61 1026.30 1026.84 1027.96 1028.24 1028.50 1028.87 1028.35 1028.66 1029.23 1029.53 1030.22 1030.24 1030.18 1029.76 1028.49 1027.32
1025.23 1025.09 1024.86 1024.63 1024.42 1023.94 1023.40 1022.76 1021.94 1021.07 1020.04 1019.67 1020.87 1021.31 1020.63 1020.53 1021.68 1023.74 1024.42 1024.27 1024.11 1024.13 1024.09 1024.04 1023.98 1024.11 1024.27 1024.54 1024.90 1025.11 1025.45 1025.90 1026.74 1027.36 1028.31 1028.81 1028.97 1028.86 1028.38 1029.67 1030.23 1029.77 1029.40 1028.91 1028.87 1027.94 1026.90
1025.30 1025.10 1025.04 1024.89 1024.74 1024.28 1023.78 1023.08 1022.32 1021.60 1020.97 1021.20 1022.35 1022.16 1020.84 1020.77 1023.31 1024.99 1024.88 1024.65 1024.48 1024.44 1024.33 1024.40 1024.41 1024.46 1024.76 1024.88 1025.20 1024.82 1025.18 1026.01 1026.56 1027.13 1027.45 1028.05 1028.24 1028.01 1027.49 1029.19 1029.47 1029.26 1028.78 1028.00 1027.15 1026.11 1024.66
1025.39 1025.34 1025.36 1025.26 1025.06 1024.69 1024.22 1023.47 1022.69 1021.98 1021.33 1021.66 1023.18 1023.63 1023.00 1023.82 1025.52 1025.33 1025.26 1024.94 1024.61 1024.45 1024.41 1024.44 1024.60 1024.74 1025.05 1025.10 1025.01 1024.98 1025.15 1025.82 1026.39 1026.62 1026.75 1026.92 1027.11 1026.72 1026.18 1025.65 1026.04 1027.20 1027.33 1027.00 1026.65 1025.39 1022.79
1025.81 1025.75 1025.72 1025.62 1025.45 1025.17 1024.75 1024.04 1023.17 1022.27 1021.51 1021.90 1024.40 1026.14 1026.54 1026.28 1026.12 1025.87 1025.46 1025.17 1024.65 1024.45 1024.50 1024.50 1024.67 1024.76 1025.03 1025.37 1024.96 1025.00 1025.13 1025.64 1026.29 1026.46 1026.91 1027.08 1026.83 1025.78 1024.60 1024.19 1024.56 1024.89 1025.34 1025.57 1025.32 1023.37 1023.36
1026.15 1026.16 1026.14 1026.04 1025.87 1025.61 1025.27 1024.74 1024.00 1022.89 1021.98 1023.11 1025.25 1026.15 1026.83 1026.97 1026.64 1026.06 1025.73 1025.25 1024.86 1024.43 1024.55 1024.59 1024.89 1024.51 1024.82 1024.96 1024.33 1024.24 1024.37 1024.93 1025.20 1026.45 1027.00 1027.25 1026.33 1025.54 1024.37 1023.59 1023.52 1023.89 1024.17 1023.80 1023.66 1023.70 1023.10
1026.61 1026.66 1026.59 1026.49 1026.34 1026.11 1025.79 1025.30 1024.71 1023.93 1022.97 1024.42 1025.72 1025.95 1026.17 1027.00 1026.73 1026.49 1025.79 1025.05 1024.73 1024.58 1023.96 1023.98 1024.42 1024.77 1024.85 1024.12 1023.63 1023.43 1023.53 1023.69 1023.84 1024.95 1026.45 1027.13 1026.66 1025.79 1023.51 1023.24 1023.34 1022.91 1021.82 1022.64 1023.49 1023.65 1023.43
1027.00 1027.05 1027.02 1026.95 1026.78 1026.55 1026.25 1025.86 1025.51 1025.13 1024.89 1025.37 1026.09 1026.26 1026.54 1026.90 1026.76 1026.15 1025.38 1024.95 1024.68 1024.49 1024.43 1024.05 1024.32 1024.51 1024.21 1023.86 1023.53 1023.26 1023.14 1023.11 1023.72 1024.25 1025.07 1026.09 1026.46 1025.80 1024.14 1023.40 1022.51 1020.69 1020.92 1021.83 1022.72 1022.65 1023.02
1027.45 1027.41 1027.42 1027.37 1027.25 1027.01 1026.69 1026.39 1026.08 1025.72 1025.38 1025.51 1026.01 1026.25 1026.59 1026.54 1026.17 1025.56 1025.04 1024.81 1024.43 1024.21 1024.45 1024.29 1024.20 1024.60 1024.52 1024.25 1023.98 1023.35 1023.21 1023.54 1024.46 1025.55 1025.85 1025.86 1026.26 1025.74 1024.98 1023.67 1021.47 1020.66 1021.09 1021.82 1022.73 1021.90 1021.57
1028.03 1027.94 1027.83 1027.77 1027.70 1027.49 1027.25 1026.97 1026.68 1026.36 1026.02 1025.99 1026.48 1026.45 1026.49 1026.61 1025.45 1025.07 1024.87 1024.69 1024.64 1024.61 1024.36 1024.27 1024.80 1024.99 1024.91 1024.77 1024.69 1024.15 1023.47 1023.52 1024.74 1026.23 1027.05 1026.90 1026.56 1026.20 1025.41 1024.45 1022.37 1020.43 1020.61 1021.00 1021.76 1021.35 1020.68
1028.52 1028.40 1028.31 1028.29 1028.13 1027.98 1027.75 1027.54 1027.18 1026.77 1026.48 1026.63 1027.05 1027.07 1026.72 1026.88 1025.33 1024.91 1024.65 1024.56 1024.48 1024.99 1025.41 1025.33 1025.51 1025.51 1025.51 1025.28 1025.04 1024.23 1023.37 1023.17 1024.51 1025.89 1027.24 1027.37 1026.92 1025.80 1024.89 1023.64 1021.50 1019.72 1020.30 1020.94 1021.52 1020.72 1020.38
1028.99 1028.95 1028.84 1028.74 1028.57 1028.32 1028.10 1027.85 1027.63 1027.32 1026.96 1027.03 1027.66 1027.59 1027.56 1027.20 1025.76 1025.12 1024.81 1024.74 1024.95 1025.29 1025.80 1025.86 1026.48 1026.11 1026.32 1025.90 1025.26 1024.63 1024.24 1024.11 1024.68 1025.29 1025.67 1025.65 1025.71 1025.22 1024.59 1023.53 1021.37 1019.88 1020.63 1020.67 1019.90 1019.80 1020.18
1029.35 1029.24 1029.13 1028.95 1028.70 1028.45 1028.33 1028.02 1027.77 1027.55 1027.34 1027.37 1027.97 1027.59 1027.65 1027.84 1026.59 1026.07 1025.70 1025.63 1025.64 1025.77 1026.00 1026.04 1026.17 1026.15 1025.73 1025.87 1025.56 1024.83 1024.22 1024.01 1024.28 1024.85 1024.80 1024.67 1023.16 1023.06 1022.76 1020.60 1019.61 1019.69 1019.46 1019.45 1019.51 1019.91 1019.53
Wind_Speed
8 9 9 9 10 10 11 12 13 12 12 12 12 12 12 12 12 12 12 12 12 11 10 10 10 8 1 8 3 7 17 12 3 4 6 3 4 3 5 4 2 4 2 3 2 3 1
8 8 9 10 11 12 13 13 13 14 14 14 14 13 12 12 12 12 12 11 11 10 10 10 9 5 4 7 3 7 9 5 6 5 6 7 3 3 7 4 4 2 3 3 2 2 1
8 8 10 11 12 12 13 14 15 15 15 14 13 13 12 12 12 11 12 11 10 10 10 9 8 2 9 2 2 6 8 3 4 3 4 3 1 5 3 4 4 5 3 0 4 5 1
9 9 10 11 12 13 14 14 14 15 14 14 12 12 12 11 11 11 12 12 10 9 8 6 4 3 3 0 1 5 7 1 6 4 4 1 6 9 6 2 4 4 4 4 1 6 1
9 10 11 12 12 13 14 15 15 15 15 14 13 12 12 12 12 12 11 9 8 6 4 3 1 2 2 1 5 5 5 4 6 1 5 3 6 5 6 3 4 7 1 3 6 3 4
9 10 11 12 13 13 14 15 16 16 16 15 14 13 13 13 12 11 10 2 4 2 5 1 2 4 6 5 6 5 4 4 4 2 2 9 7 6 6 6 1 4 5 4 5 5 3
9 10 11 12 13 14 15 16 17 18 17 16 14 13 13 13 11 9 3 3 5 4 12 4 1 1 4 9 2 5 5 5 3 10 6 6 10 4 2 2 0 1 2 5 5 3 5
9 10 11 12 13 15 17 17 18 19 18 16 15 14 13 12 8 5 5 6 2 1 6 1 1 2 1 2 6 8 8 6 8 5 6 6 4 1 2 1 2 3 2 5 6 1 2
9 11 12 12 14 16 17 18 19 20 19 17 15 14 14 11 1 7 6 4 1 1 5 2 1 2 4 4 3 9 7 3 6 6 7 6 1 1 1 2 5 2 3 3 5 9 2
10 11 12 13 15 16 17 18 19 20 19 18 14 14 13 10 7 0 4 2 2 1 6 5 4 4 3 2 4 3 3 2 7 3 3 5 1 1 1 2 1 4 1 1 5 5 4
10 12 13 14 15 16 17 19 20 21 20 17 14 15 8 12 6 5 1 3 3 2 5 4 5 2 2 5 4 5 2 5 3 2 2 1 3 3 2 1 1 5 0 2 2 1 4
10 11 13 15 16 16 17 18 20 20 21 17 13 14 5 6 4 1 3 3 2 10 6 3 3 6 3 6 7 7 6 9 2 3 5 3 0 2 1 2 2 4 2 2 2 2 2
10 12 14 16 16 17 17 19 20 20 20 16 11 9 7 1 1 3 2 3 8 6 2 4 4 5 1 6 6 9 7 9 3 5 7 2 1 0 2 3 1 4 5 5 7 5 4
10 12 14 15 17 18 19 20 20 20 18 14 7 5 5 3 2 1 2 7 2 2 0 1 1 2 3 5 3 7 2 3 2 3 4 3 7 1 4 3 3 3 4 5 5 3 6
11 12 15 16 17 18 20 19 21 20 18 11 3 3 3 4 3 1 6 6 6 3 1 3 1 3 2 0 1 3 2 3 3 2 5 3 6 2 4 2 3 1 2 2 6 2 2
10 12 15 17 17 18 19 20 20 21 19 7 3 3 2 6 3 4 7 4 2 1 1 1 1 1 2 4 3 5 1 4 2 3 2 3 5 2 2 2 3 3 1 3 4 2 5
9 13 15 16 16 17 18 20 20 22 20 1 4 4 3 4 3 7 4 4 2 1 1 1 3 2 2 1 1 2 3 3 3 4 3 4 4 2 1 5 7 2 2 5 2 3 3
8 12 15 15 15 17 19 20 21 23 21 8 3 3 3 1 6 2 3 1 0 2 1 1 2 4 4 5 4 4 5 5 6 7 4 2 5 3 9 1 0 1 5 5 4 3 3
7 10 11 12 15 17 20 21 22 22 14 2 3 2 3 3 4 2 2 0 1 2 2 1 3 2 3 4 2 4 3 2 6 5 7 6 2 5 4 3 3 2 4 1 1 3 10
8 12 14 15 16 17 20 22 23 23 15 5 4 4 6 7 1 6 3 1 1 1 2 1 0 1 1 3 4 3 3 3 6 5 7 7 2 9 12 15 5 4 7 7 5 6 13
13 14 15 16 17 19 20 22 25 25 16 5 5 0 2 4 4 2 1 1 2 2 1 1 1 5 6 3 2 5 3 1 3 5 3 5 6 7 15 18 12 15 16 12 15 19 15
13 15 15 16 18 19 21 22 24 27 15 7 3 3 1 0 2 2 2 1 1 3 3 3 4 1 6 5 8 8 6 5 7 3 6 3 5 2 6 15 13 14 15 21 22 17 18
15 16 16 17 18 18 19 20 22 25 12 4 2 2 5 2 2 3 3 2 4 2 4 3 7 1 4 12 8 8 6 7 6 10 10 7 4 3 7 1 4 9 13 14 2 4 7
16 16 16 16 17 17 18 19 21 21 12 2 1 2 4 4 1 5 4 6 7 7 7 6 5 6 3 4 5 4 7 7 6 7 8 7 3 2 5 4 7 7 1 4 11 7 12
15 15 15 15 15 16 17 18 19 19 18 4 1 3 2 3 3 4 7 6 6 6 4 6 3 2 3 3 4 6 3 2 3 6 1 2 4 4 4 3 10 7 1 5 6 7 9
14 14 14 14 15 15 15 16 17 19 19 3 2 1 2 2 5 2 2 3 5 9 4 4 1 1 1 2 1 4 4 1 3 1 6 3 3 3 1 4 7 7 2 4 4 7 6
13 13 14 14 14 15 15 16 17 17 18 4 2 5 1 2 5 3 5 4 1 1 3 4 3 0 3 2 3 6 7 3 4 4 4 2 2 11 9 7 10 7 5 5 4 7 4
14 14 14 13 12 13 13 14 15 16 17 5 0 4 2 2 6 4 3 2 2 2 4 4 4 2 1 3 3 4 1 3 2 4 8 9 8 6 2 4 11 5 4 5 4 2 4
12 13 13 13 12 10 9 9 9 10 11 6 3 2 1 3 6 2 3 5 4 3 2 3 3 1 3 2 2 2 3 3 5 8 1 4 7 5 10 9 1 6 4 2 1 4 5
Wind_Direction
49 51 41 32 23 16 16 16 11 2 355 351 350 349 345 339 332 324 319 317 315 315 319 320 320 329 242 44 344 332 339 343 18 46 55 45 56 96 97 98 75 77 148 72 108 67 60
46 44 40 31 22 17 15 15 9 3 358 355 351 349 342 335 326 318 314 314 315 316 318 319 324 313 76 63 332 344 338 358 25 34 21 34 90 107 96 63 62 92 91 107 62 34 305
41 35 35 29 22 18 15 13 9 2 357 351 348 344 337 332 324 316 315 314 311 310 312 315 329 70 63 134 5 346 3 17 355 25 68 26 126 81 139 91 164 143 75 62 23 338 161
36 30 29 27 22 19 18 13 8 4 358 351 346 342 337 331 324 315 312 306 302 300 300 301 318 68 100 102 189 19 341 4 6 21 88 64 76 98 56 127 45 52 53 6 66 353 71
35 32 28 25 23 20 17 13 8 2 1 354 347 343 337 330 325 316 308 301 298 303 299 314 21 63 15 104 24 318 35 353 303 25 42 78 67 79 35 52 32 14 300 323 316 56 312
32 31 30 26 21 16 14 11 6 3 360 356 348 343 337 332 328 324 310 269 318 46 353 46 66 42 19 316 309 342 344 359 26 325 30 37 49 64 31 33 188 318 333 311 255 349 351
30 31 29 25 19 12 11 8 7 4 360 352 346 340 338 335 328 338 19 50 23 355 41 71 17 7 330 298 277 12 354 345 29 55 36 11 61 50 325 15 315 276 260 271 270 12 330
25 28 26 23 15 9 9 8 6 3 358 350 344 339 340 339 333 8 65 74 66 169 83 17 293 326 289 339 2 348 3 58 49 48 332 27 68 240 243 234 265 222 281 275 275 161 342
24 22 20 20 13 6 7 9 7 4 357 350 344 342 339 342 6 42 75 93 326 282 90 7 53 21 319 21 76 319 18 41 61 51 15 99 136 280 229 58 6 242 207 271 253 321 225
27 22 15 14 12 5 1 8 7 4 358 352 349 350 344 333 48 307 51 340 339 285 73 320 345 4 357 42 42 313 15 101 35 112 81 90 290 209 207 97 68 308 106 319 291 2 288
29 22 15 9 9 2 358 5 7 5 1 356 352 353 9 37 142 61 294 316 300 40 38 305 330 304 359 65 305 360 8 26 83 89 96 315 5 10 41 2 143 263 288 250 136 133 9
32 24 16 10 5 358 355 3 5 4 3 356 352 356 12 21 51 14 314 324 44 45 263 7 341 342 16 22 3 311 22 37 135 106 46 95 296 43 279 286 224 325 285 139 72 118 8
34 27 19 11 1 357 356 2 2 2 1 353 357 12 51 35 79 324 343 49 41 120 346 337 339 16 82 345 360 27 23 10 64 48 6 4 39 127 7 323 222 24 29 334 349 1 236
36 29 23 8 360 358 1 0 358 354 350 347 343 25 31 62 314 355 57 51 104 167 2 280 310 311 56 2 27 3 53 33 106 44 79 71 327 50 7 111 190 37 134 150 259 286 302
34 29 23 12 2 4 6 360 356 343 344 344 21 2 41 343 346 49 74 62 215 191 206 341 293 69 354 86 237 28 59 195 219 139 136 71 278 112 46 94 83 231 44 167 102 102 13
31 31 22 14 9 4 359 356 350 344 348 359 79 62 335 322 4 62 74 193 188 220 197 217 201 110 297 308 352 31 343 229 205 185 180 198 315 64 130 110 51 126 144 39 13 325 288
27 28 21 16 9 5 1 356 353 348 349 24 54 55 268 346 58 48 124 201 178 208 202 142 192 214 212 260 226 268 237 235 192 154 96 123 106 273 138 195 179 58 12 43 118 130 204
29 26 22 18 13 8 4 359 357 354 347 47 79 33 308 58 49 39 100 202 144 196 253 216 99 139 200 178 233 241 229 213 148 150 144 216 146 259 243 360 140 130 204 156 145 217 236
19 33 29 25 19 11 5 2 359 357 15 56 68 279 323 76 91 18 267 260 231 189 235 215 236 229 209 216 328 211 225 116 155 154 170 184 211 303 289 5 17 206 214 229 333 17 211
33 42 40 31 25 15 9 2 359 359 2 81 67 21 341 46 47 112 15 23 307 162 269 221 255 86 146 246 221 279 254 186 193 203 179 161 233 212 256 266 147 185 205 204 196 224 277
60 53 44 38 31 22 15 8 1 358 358 87 27 354 183 329 357 60 81 271 302 289 236 200 234 221 178 205 242 230 233 206 193 219 151 176 232 237 250 271 270 261 261 230 210 236 248
69 56 47 42 37 29 21 16 8 359 356 75 90 98 21 61 302 330 7 236 234 304 164 230 214 270 187 194 199 261 203 206 225 138 166 177 260 257 241 246 254 263 262 246 249 254 256
70 58 50 45 40 34 27 22 17 10 13 58 351 27 106 316 24 70 233 213 218 125 255 222 204 215 212 235 243 255 249 258 238 160 189 180 221 210 272 222 269 261 235 230 205 240 182
72 63 54 47 42 37 32 28 24 20 32 111 155 92 77 273 131 205 220 208 228 220 232 262 189 194 259 326 278 252 244 242 232 213 164 169 182 218 289 322 251 252 124 160 193 222 214
70 64 56 48 40 37 34 31 28 23 16 75 10 87 105 272 235 274 261 242 287 275 246 237 239 13 328 354 322 305 250 244 68 24 338 107 153 268 268 226 309 284 255 151 162 277 206
64 58 51 45 38 35 32 32 29 23 15 69 60 286 114 111 244 259 229 227 273 281 285 219 92 338 271 119 128 249 261 314 226 138 9 44 23 207 77 253 260 233 164 146 144 286 179
54 50 46 38 36 32 31 26 25 23 17 33 45 360 86 178 269 196 214 220 205 328 249 318 301 114 33 162 221 253 238 201 242 198 180 100 190 224 229 254 274 249 151 166 91 257 171
46 41 36 32 28 27 29 26 23 23 17 43 341 6 67 233 277 222 266 221 343 113 160 251 19 332 98 204 209 243 228 260 310 159 186 175 177 197 174 226 279 129 79 175 222 41 218
41 36 27 22 14 6 359 7 11 14 25 50 21 320 321 235 262 342 294 315 353 14 145 272 198 135 223 70 260 283 243 188 205 267 109 268 204 188 194 219 251 205 256 246 14 263 299